Regional Weather Roundup
Issued by NWS

Home | Current Version | Previous Version | Graphics & Text | Print | Product List | Glossary On
Versions: 1 2 3 4 5 6 7 8 9 10 11 12 13 14 15 16 17 18 19 20 21 22 23 24 25 26 27 28 29 30 31 32 33 34 35 36 37 38 39 40 41 42 43 44 45 46 47 48 49 50
720
ASUS45 KBOU 250807
RWRCO

WEATHER ROUNDUP FOR COLORADO
NATIONAL WEATHER SERVICE DENVER/BOULDER CO
200 AM MDT TUE APR 25 2017

NOTE: "FAIR" INDICATES FEW OR NO CLOUDS BELOW 12000 FEET WITH NO
SIGNIFICANT WEATHER AND/OR OBSTRUCTIONS TO VISIBILITY.

COZ001>005-013-030-031-250900-
...NORTHWEST COLORADO...

CITY           SKY/WX    TMP DP  RH WIND       PRES   REMARKS
CRAIG          FAIR      34  31  88 NW5       29.72S WCI  30
HAYDEN         CLOUDY    32  28  86 NE3       29.72S VSB 1/4
MEEKER         MOCLDY    37  34  89 NE8       29.73F
MOUNT WERNER   NOT AVBL
STEAMBOAT SPGS CLOUDY    32  32 100 CALM      29.72R
WALDEN         NOT AVBL
$$

COZ006>008-011-250900-
...WEST CENTRAL VALLEYS...

CITY           SKY/WX    TMP DP  RH WIND       PRES   REMARKS
GRAND JUNCTION CLOUDY    45  40  82 SE8       29.69F
MONTROSE       CLOUDY    43  35  73 W8        29.77R
EAGLE          CLOUDY    38  33  82 W10       29.74F
RIFLE          MOCLDY    40  37  89 NE6       29.73F
DELTA          MOCLDY    47  35  61 SW14G21   29.72R
NUCLA          MOCLDY    48  27  43 NW6       29.77S
$$

COZ017>023-064>068-250900-
...SOUTHWEST COLORADO...

CITY           SKY/WX    TMP DP  RH WIND       PRES   REMARKS
DURANGO        FAIR      44  31  60 N6        29.69F
CORTEZ         MOCLDY    50  31  48 NW10G22   29.71S
PAGOSA SPRINGS FAIR      42  32  67 CALM      29.73F
TELLURIDE      CLOUDY    38  30  73 W13       29.82S
WOLF CREEK PAS CLOUDY    27  27 100 S23G35    29.85F WCI  12
$$

COZ009-010-012-014-032>034-037-058>063-250900-
...CENTRAL COLORADO...

CITY           SKY/WX    TMP DP  RH WIND       PRES   REMARKS
ASPEN          LGT SNOW  31  31 100 N3        29.77F VSB 3/4
BUENA VISTA    LGT SNOW  34  31  90 NW20G38   29.70R VSB 1   WCI  22
COPPER MTN     LGT SNOW  25  19  80 MISG      29.79R VSB 1
BERTHOUD PASS  CLOUDY    18   5  57 MISG      29.72F
COTTONWOOD PAS SNOW      34  32  93 W5G18     29.73R VSB 1/2 WCI  30
GUNNISON       LGT RAIN  36  32  85 N12G20    29.73R
KREMMLING      LGT SNOW  37  36  93 CALM      29.74F
LEADVILLE      LGT SNOW  25  23  92 N7        29.74F VSB 3/4 WCI  17
MONARCH PASS   CLOUDY    28  25  86 SW32G47   29.85S WCI  12
SALIDA         FAIR      47  30  50 SW10G18   29.72S
SUNLIGHT       CLOUDY    23  21  93 W10G23    29.82S WCI  12
WILKERSON PASS LGT SNOW  30  27  86 W12G28    29.75R VSB 1   WCI  21
$$

COZ069>075-250900-
...SAN LUIS VALLEY/SANGRE DE CRISTO MOUNTAINS...

CITY           SKY/WX    TMP DP  RH WIND       PRES   REMARKS
ALAMOSA        FAIR      43  27  53 SE5       29.66F
LA VETA PASS   CLOUDY    37  23  56 S23G36    29.84F
SAGUACHE       FAIR      46  27  46 NW9       29.67S
$$

COZ035-036-038>040-250900-
...NORTHERN COLORADO FRONT RANGE...

CITY           SKY/WX    TMP DP  RH WIND       PRES   REMARKS
DENVER INTL AP CLOUDY    43  38  82 NW10      29.59F
DMNS CITY PARK   N/A     46  40  79 SE7       29.59R
AURORA         DRIZZLE   43  39  87 NE7       29.60S
FRONT RANGE AP LGT RAIN  45  41  87 NW13      29.60F
ERIE MUNI ARPT CLOUDY    44  42  93 E6        29.58S
BOULDER MUN AP CLOUDY    45  43  93 SE6       29.57F
CENTENNIAL     LGT RAIN  45  41  86 N9        29.61R
BROOMFIELD     FAIR      43  41  93 E7        29.59F
FORT COLLINS   FAIR      43  41  93 SW6       29.59R FOG
LONGMONT       CLOUDY    46  43  90 CALM      29.59R
$$

COZ041-046-047-076>085-087-088-250900-
...PIKES PEAK/PALMER DIVIDE AND SOUTHERN FOOTHILLS...

CITY           SKY/WX    TMP DP  RH WIND       PRES   REMARKS
COLO. SPRINGS  FAIR      46  36  68 N14       29.56R
A. F. ACADEMY  FAIR      43  35  74 N18       29.57R
SCHRIEVER AFB  FAIR      45  35  68 N13       29.56R
ELLICOTT       FAIR     N/A N/A N/A N7        29.53S
FALCON         FAIR      42  35  74 N22G29    29.59R
FORT CARSON    FAIR      43  34  70 N7        29.52F
LIMON          FAIR      44  39  82 N8        29.52R
MONUMENT HILL  MOCLDY    36  34  93 N10       29.64R
TRINIDAD       FAIR      55  25  31 SW12      29.53F
$$

COZ042>045-048>051-090-091-250900-
...NORTHEAST COLORADO...

CITY           SKY/WX    TMP DP  RH WIND       PRES   REMARKS
GREELEY ARPT   LGT RAIN  45  43  93 SE9       29.57F
AKRON          CLOUDY    46  39  76 NW26G37   29.57R
BURLINGTON     NOT AVBL
WRAY           NOT AVBL
STERLING       LGT RAIN  43  41  93 NW22G29   29.56F
HOLYOKE        MOCLDY    48  43  81 N8        29.53R
FORT MORGAN    LGT RAIN  43  39  87 NW18G31   29.58F
$$

COZ086-089-092>099-250900-
...SOUTHEAST COLORADO...

CITY           SKY/WX    TMP DP  RH WIND       PRES   REMARKS
PUEBLO         FAIR      49  39  68 N7        29.47S
LA JUNTA       FAIR      58  32  37 W12       29.44S
LAMAR          FAIR      58  33  39 W14       29.39F
SPRINGFIELD      N/A     50  34  54 W10       29.45F
$$




USA.gov is the U.S. government's official web portal to all federal, state and local government web resources and services.